owner,sensor,date,latitude,longitude,air_pressure(mBar),qcFlag 
TABS,ioos:station:wmo:42045:1,2010-11-01T00:00:00Z,26.2168,-96.4998,1014.26,11111222 
TABS,ioos:station:wmo:42045:1,2010-11-01T00:30:00Z,26.2168,-96.4998,1014.46,11111222 
TABS,ioos:station:wmo:42045:1,2010-11-01T01:00:00Z,26.2168,-96.4998,1014.61,11111222 
TABS,ioos:station:wmo:42045:1,2010-11-01T01:30:00Z,26.2168,-96.4998,1015.02,11111222 
TABS,ioos:station:wmo:42045:1,2010-11-01T02:00:00Z,26.2168,-96.4998,1015.19,11111222 
TABS,ioos:station:wmo:42045:1,2010-11-01T02:30:00Z,26.2168,-96.4998,1015.5,11111222 
TABS,ioos:station:wmo:42045:1,2010-11-01T03:00:00Z,26.2168,-96.4998,1015.57,11111222 
TABS,ioos:station:wmo:42045:1,2010-11-01T03:30:00Z,26.2168,-96.4998,1015.62,11111222 
TABS,ioos:station:wmo:42045:1,2010-11-01T04:00:00Z,26.2168,-96.4998,1015.69,11111222 
TABS,ioos:station:wmo:42045:1,2010-11-01T04:30:00Z,26.2168,-96.4998,1015.47,11111222 
TABS,ioos:station:wmo:42045:1,2010-11-01T05:00:00Z,26.2168,-96.4998,1015.92,11111222 
TABS,ioos:station:wmo:42045:1,2010-11-01T05:30:00Z,26.2168,-96.4998,1015.77,11111222 
TABS,ioos:station:wmo:42045:1,2010-11-01T06:00:00Z,26.2168,-96.4998,1015.63,11111222 
TABS,ioos:station:wmo:42045:1,2010-11-01T06:30:00Z,26.2168,-96.4998,1015.18,11111222 
TABS,ioos:station:wmo:42045:1,2010-11-01T07:00:00Z,26.2168,-96.4998,1014.81,11111222 
TABS,ioos:station:wmo:42045:1,2010-11-01T07:30:00Z,26.2168,-96.4998,1015.05,11111222 
TABS,ioos:station:wmo:42045:1,2010-11-01T08:00:00Z,26.2168,-96.4998,1014.3,11111222 
TABS,ioos:station:wmo:42045:1,2010-11-01T08:30:00Z,26.2168,-96.4998,1014.45,11111222 
TABS,ioos:station:wmo:42045:1,2010-11-01T09:00:00Z,26.2168,-96.4998,1014.62,11111222 
TABS,ioos:station:wmo:42045:1,2010-11-01T09:30:00Z,26.2168,-96.4998,1014.49,11111222 
TABS,ioos:station:wmo:42045:1,2010-11-01T10:00:00Z,26.2168,-96.4998,1014.9,11111222 
TABS,ioos:station:wmo:42045:1,2010-11-01T10:30:00Z,26.2168,-96.4998,1014.65,11111222 
TABS,ioos:station:wmo:42045:1,2010-11-01T11:00:00Z,26.2168,-96.4998,1014.61,11111222 
TABS,ioos:station:wmo:42045:1,2010-11-01T11:30:00Z,26.2168,-96.4998,1014.55,11111222 
TABS,ioos:station:wmo:42045:1,2010-11-01T12:00:00Z,26.2168,-96.4998,1014.74,11111222 
TABS,ioos:station:wmo:42045:1,2010-11-01T12:30:00Z,26.2168,-96.4998,1015.08,11111222 
TABS,ioos:station:wmo:42045:1,2010-11-01T13:00:00Z,26.2168,-96.4998,1015.58,11111222 
TABS,ioos:station:wmo:42045:1,2010-11-01T13:30:00Z,26.2168,-96.4998,1015.8,11111222 
TABS,ioos:station:wmo:42045:1,2010-11-01T14:00:00Z,26.2168,-96.4998,1016.18,11111222 
TABS,ioos:station:wmo:42045:1,2010-11-01T14:30:00Z,26.2168,-96.4998,1016.32,11111222 
TABS,ioos:station:wmo:42045:1,2010-11-01T15:00:00Z,26.2168,-96.4998,1016.38,11111222 
TABS,ioos:station:wmo:42045:1,2010-11-01T15:30:00Z,26.2168,-96.4998,1016.43,11111222 
TABS,ioos:station:wmo:42045:1,2010-11-01T16:00:00Z,26.2168,-96.4998,1016.56,11111222 
TABS,ioos:station:wmo:42045:1,2010-11-01T16:30:00Z,26.2168,-96.4998,1016.45,11111222 
TABS,ioos:station:wmo:42045:1,2010-11-01T17:00:00Z,26.2168,-96.4998,1016.21,11111222 
TABS,ioos:station:wmo:42045:1,2010-11-01T17:30:00Z,26.2168,-96.4998,1016.05,11111222 
TABS,ioos:station:wmo:42045:1,2010-11-01T18:00:00Z,26.2168,-96.4998,1015.92,11111222 
TABS,ioos:station:wmo:42045:1,2010-11-01T18:30:00Z,26.2168,-96.4998,1015.37,11111222 
TABS,ioos:station:wmo:42045:1,2010-11-01T19:00:00Z,26.2168,-96.4998,1015.09,11111222 
TABS,ioos:station:wmo:42045:1,2010-11-01T19:30:00Z,26.2168,-96.4998,1014.8,11111222 
TABS,ioos:station:wmo:42045:1,2010-11-01T20:00:00Z,26.2168,-96.4998,1014.47,11111222 
TABS,ioos:station:wmo:42045:1,2010-11-01T20:30:00Z,26.2168,-96.4998,1014.15,11111222 
TABS,ioos:station:wmo:42045:1,2010-11-01T21:00:00Z,26.2168,-96.4998,1014.04,11111222 
TABS,ioos:station:wmo:42045:1,2010-11-01T21:30:00Z,26.2168,-96.4998,1014.41,11111222 
TABS,ioos:station:wmo:42045:1,2010-11-01T22:00:00Z,26.2168,-96.4998,1014.31,11111222 
TABS,ioos:station:wmo:42045:1,2010-11-01T22:30:00Z,26.2168,-96.4998,1014.4,11111222 
TABS,ioos:station:wmo:42045:1,2010-11-01T23:00:00Z,26.2168,-96.4998,1014.55,11111222 
TABS,ioos:station:wmo:42045:1,2010-11-01T23:30:00Z,26.2168,-96.4998,1014.66,11111222 
TABS,ioos:station:wmo:42045:1,2010-11-02T00:00:00Z,26.2168,-96.4998,1014.51,11111222 
TABS,ioos:station:wmo:42045:1,2010-11-02T00:30:00Z,26.2168,-96.4998,1014.6,11111222 
TABS,ioos:station:wmo:42045:1,2010-11-02T01:00:00Z,26.2168,-96.4998,1014.55,11111222 
TABS,ioos:station:wmo:42045:1,2010-11-02T01:30:00Z,26.2168,-96.4998,1014.57,11111222 
TABS,ioos:station:wmo:42045:1,2010-11-02T02:00:00Z,26.2168,-96.4998,1014.85,11111222 
TABS,ioos:station:wmo:42045:1,2010-11-02T02:30:00Z,26.2168,-96.4998,1014.82,11111222 
TABS,ioos:station:wmo:42045:1,2010-11-02T03:00:00Z,26.2168,-96.4998,1015.21,11111222 
TABS,ioos:station:wmo:42045:1,2010-11-02T03:30:00Z,26.2168,-96.4998,1015.33,11111222 
TABS,ioos:station:wmo:42045:1,2010-11-02T04:00:00Z,26.2168,-96.4998,1015.69,11111222 
TABS,ioos:station:wmo:42045:1,2010-11-02T04:30:00Z,26.2168,-96.4998,1015.58,11111222 
TABS,ioos:station:wmo:42045:1,2010-11-02T05:00:00Z,26.2168,-96.4998,1015.64,11111222 
TABS,ioos:station:wmo:42045:1,2010-11-02T05:30:00Z,26.2168,-96.4998,1015.26,11111222 
TABS,ioos:station:wmo:42045:1,2010-11-02T06:00:00Z,26.2168,-96.4998,1015.01,11111222 
TABS,ioos:station:wmo:42045:1,2010-11-02T06:30:00Z,26.2168,-96.4998,1014.5,11111222 
TABS,ioos:station:wmo:42045:1,2010-11-02T07:00:00Z,26.2168,-96.4998,1014.17,11111222 
TABS,ioos:station:wmo:42045:1,2010-11-02T07:30:00Z,26.2168,-96.4998,1013.62,11111222 
TABS,ioos:station:wmo:42045:1,2010-11-02T08:00:00Z,26.2168,-96.4998,1013.23,11111222 
TABS,ioos:station:wmo:42045:1,2010-11-02T08:30:00Z,26.2168,-96.4998,1013.1,11111222 
TABS,ioos:station:wmo:42045:1,2010-11-02T09:00:00Z,26.2168,-96.4998,1012.85,11111222 
TABS,ioos:station:wmo:42045:1,2010-11-02T09:30:00Z,26.2168,-96.4998,1012.93,11111222 
TABS,ioos:station:wmo:42045:1,2010-11-02T10:00:00Z,26.2168,-96.4998,1013.0,11111222 
TABS,ioos:station:wmo:42045:1,2010-11-02T10:30:00Z,26.2168,-96.4998,1012.91,11111222 
TABS,ioos:station:wmo:42045:1,2010-11-02T11:00:00Z,26.2168,-96.4998,1013.81,11111222 
TABS,ioos:station:wmo:42045:1,2010-11-02T11:30:00Z,26.2168,-96.4998,1013.63,11111222 
TABS,ioos:station:wmo:42045:1,2010-11-02T12:00:00Z,26.2168,-96.4998,1013.53,11111222 
TABS,ioos:station:wmo:42045:1,2010-11-02T12:30:00Z,26.2168,-96.4998,1013.83,11111222 
TABS,ioos:station:wmo:42045:1,2010-11-02T13:00:00Z,26.2168,-96.4998,1013.68,11111222 
TABS,ioos:station:wmo:42045:1,2010-11-02T13:30:00Z,26.2168,-96.4998,1013.63,11111222 
TABS,ioos:station:wmo:42045:1,2010-11-02T14:00:00Z,26.2168,-96.4998,1015.08,11111222 
TABS,ioos:station:wmo:42045:1,2010-11-02T14:30:00Z,26.2168,-96.4998,1015.82,11111222 
TABS,ioos:station:wmo:42045:1,2010-11-02T15:00:00Z,26.2168,-96.4998,1016.3,11111222 
TABS,ioos:station:wmo:42045:1,2010-11-02T15:30:00Z,26.2168,-96.4998,1016.05,11111222 
TABS,ioos:station:wmo:42045:1,2010-11-02T16:00:00Z,26.2168,-96.4998,1016.65,11111222 
TABS,ioos:station:wmo:42045:1,2010-11-02T16:30:00Z,26.2168,-96.4998,1016.56,11111222 
TABS,ioos:station:wmo:42045:1,2010-11-02T17:00:00Z,26.2168,-96.4998,1016.83,11111222 
TABS,ioos:station:wmo:42045:1,2010-11-02T17:30:00Z,26.2168,-96.4998,1016.29,11111222 
TABS,ioos:station:wmo:42045:1,2010-11-02T18:00:00Z,26.2168,-96.4998,1016.08,11111222 
TABS,ioos:station:wmo:42045:1,2010-11-02T18:30:00Z,26.2168,-96.4998,1015.28,11111222 
TABS,ioos:station:wmo:42045:1,2010-11-02T19:00:00Z,26.2168,-96.4998,1014.85,11111222 
TABS,ioos:station:wmo:42045:1,2010-11-02T19:30:00Z,26.2168,-96.4998,1014.74,11111222 
TABS,ioos:station:wmo:42045:1,2010-11-02T20:00:00Z,26.2168,-96.4998,1014.06,11111222 
TABS,ioos:station:wmo:42045:1,2010-11-02T20:30:00Z,26.2168,-96.4998,1014.03,11111222 
TABS,ioos:station:wmo:42045:1,2010-11-02T21:00:00Z,26.2168,-96.4998,1013.71,11111222 
TABS,ioos:station:wmo:42045:1,2010-11-02T21:30:00Z,26.2168,-96.4998,1013.5,11111222 
TABS,ioos:station:wmo:42045:1,2010-11-02T22:00:00Z,26.2168,-96.4998,1013.75,11111222 
TABS,ioos:station:wmo:42045:1,2010-11-02T22:30:00Z,26.2168,-96.4998,1013.89,11111222 
TABS,ioos:station:wmo:42045:1,2010-11-02T23:00:00Z,26.2168,-96.4998,1013.93,11111222 
TABS,ioos:station:wmo:42045:1,2010-11-02T23:30:00Z,26.2168,-96.4998,1013.6,11111222 
TABS,ioos:station:wmo:42045:1,2010-11-03T00:00:00Z,26.2168,-96.4998,1014.0,11111222 
TABS,ioos:station:wmo:42045:1,2010-11-03T00:30:00Z,26.2168,-96.4998,1014.29,11111222 
TABS,ioos:station:wmo:42045:1,2010-11-03T01:00:00Z,26.2168,-96.4998,1014.45,11111222 
TABS,ioos:station:wmo:42045:1,2010-11-03T01:30:00Z,26.2168,-96.4998,1014.68,11111222 
TABS,ioos:station:wmo:42045:1,2010-11-03T02:00:00Z,26.2168,-96.4998,1015.1,11111222 
TABS,ioos:station:wmo:42045:1,2010-11-03T02:30:00Z,26.2168,-96.4998,1015.18,11111222 
TABS,ioos:station:wmo:42045:1,2010-11-03T03:00:00Z,26.2168,-96.4998,1014.98,11111222 
TABS,ioos:station:wmo:42045:1,2010-11-03T03:30:00Z,26.2168,-96.4998,1015.32,11111222 
TABS,ioos:station:wmo:42045:1,2010-11-03T04:00:00Z,26.2168,-96.4998,1015.5,11111222 
TABS,ioos:station:wmo:42045:1,2010-11-03T04:30:00Z,26.2168,-96.4998,1015.19,11111222 
TABS,ioos:station:wmo:42045:1,2010-11-03T05:00:00Z,26.2168,-96.4998,1015.28,11111222 
TABS,ioos:station:wmo:42045:1,2010-11-03T05:30:00Z,26.2168,-96.4998,1015.01,11111222 
TABS,ioos:station:wmo:42045:1,2010-11-03T06:00:00Z,26.2168,-96.4998,1014.56,11111222 
TABS,ioos:station:wmo:42045:1,2010-11-03T06:30:00Z,26.2168,-96.4998,1014.48,11111222 
TABS,ioos:station:wmo:42045:1,2010-11-03T07:00:00Z,26.2168,-96.4998,1014.62,11111222 
TABS,ioos:station:wmo:42045:1,2010-11-03T07:30:00Z,26.2168,-96.4998,1014.11,11111222 
TABS,ioos:station:wmo:42045:1,2010-11-03T08:00:00Z,26.2168,-96.4998,1014.32,11111222 
TABS,ioos:station:wmo:42045:1,2010-11-03T08:30:00Z,26.2168,-96.4998,1014.02,11111222 
TABS,ioos:station:wmo:42045:1,2010-11-03T09:00:00Z,26.2168,-96.4998,1013.69,11111222 
TABS,ioos:station:wmo:42045:1,2010-11-03T09:30:00Z,26.2168,-96.4998,1013.55,11111222 
TABS,ioos:station:wmo:42045:1,2010-11-03T10:00:00Z,26.2168,-96.4998,1013.53,11111222 
TABS,ioos:station:wmo:42045:1,2010-11-03T10:30:00Z,26.2168,-96.4998,1013.7,11111222 
TABS,ioos:station:wmo:42045:1,2010-11-03T11:00:00Z,26.2168,-96.4998,1013.4,11111222 
TABS,ioos:station:wmo:42045:1,2010-11-03T11:30:00Z,26.2168,-96.4998,1013.67,11111222 
TABS,ioos:station:wmo:42045:1,2010-11-03T12:00:00Z,26.2168,-96.4998,1013.87,11111222 
TABS,ioos:station:wmo:42045:1,2010-11-03T12:30:00Z,26.2168,-96.4998,1013.49,11111222 
TABS,ioos:station:wmo:42045:1,2010-11-03T13:00:00Z,26.2168,-96.4998,1013.67,11111222 
TABS,ioos:station:wmo:42045:1,2010-11-03T13:30:00Z,26.2168,-96.4998,1014.1,11111222 
TABS,ioos:station:wmo:42045:1,2010-11-03T14:00:00Z,26.2168,-96.4998,1014.15,11111222 
TABS,ioos:station:wmo:42045:1,2010-11-03T14:30:00Z,26.2168,-96.4998,1014.26,11111222 
TABS,ioos:station:wmo:42045:1,2010-11-03T15:00:00Z,26.2168,-96.4998,1014.11,11111222 
TABS,ioos:station:wmo:42045:1,2010-11-03T15:30:00Z,26.2168,-96.4998,1013.97,11111222 
TABS,ioos:station:wmo:42045:1,2010-11-03T16:00:00Z,26.2168,-96.4998,1014.4,11111222 
TABS,ioos:station:wmo:42045:1,2010-11-03T16:30:00Z,26.2168,-96.4998,1014.51,11111222 
TABS,ioos:station:wmo:42045:1,2010-11-03T17:00:00Z,26.2168,-96.4998,1014.08,11111222 
TABS,ioos:station:wmo:42045:1,2010-11-03T17:30:00Z,26.2168,-96.4998,1013.67,11111222 
TABS,ioos:station:wmo:42045:1,2010-11-03T18:00:00Z,26.2168,-96.4998,1013.56,11111222 
TABS,ioos:station:wmo:42045:1,2010-11-03T18:30:00Z,26.2168,-96.4998,1013.0,11111222 
TABS,ioos:station:wmo:42045:1,2010-11-03T19:00:00Z,26.2168,-96.4998,1012.85,11111222 
TABS,ioos:station:wmo:42045:1,2010-11-03T19:30:00Z,26.2168,-96.4998,1012.45,11111222 
TABS,ioos:station:wmo:42045:1,2010-11-03T20:00:00Z,26.2168,-96.4998,1012.5,11111222 
TABS,ioos:station:wmo:42045:1,2010-11-03T20:30:00Z,26.2168,-96.4998,1012.27,11111222 
TABS,ioos:station:wmo:42045:1,2010-11-03T21:00:00Z,26.2168,-96.4998,1012.62,11111222 
TABS,ioos:station:wmo:42045:1,2010-11-03T21:30:00Z,26.2168,-96.4998,1012.57,11111222 
TABS,ioos:station:wmo:42045:1,2010-11-03T22:00:00Z,26.2168,-96.4998,1012.65,11111222 
TABS,ioos:station:wmo:42045:1,2010-11-03T22:30:00Z,26.2168,-96.4998,1012.68,11111222 
TABS,ioos:station:wmo:42045:1,2010-11-03T23:00:00Z,26.2168,-96.4998,1012.56,11111222 
TABS,ioos:station:wmo:42045:1,2010-11-03T23:30:00Z,26.2168,-96.4998,1012.56,11111222 
TABS,ioos:station:wmo:42045:1,2010-11-04T00:00:00Z,26.2168,-96.4998,1012.91,11111222 
TABS,ioos:station:wmo:42045:1,2010-11-04T00:30:00Z,26.2168,-96.4998,1013.41,11111222 
TABS,ioos:station:wmo:42045:1,2010-11-04T01:00:00Z,26.2168,-96.4998,1013.3,11111222 
TABS,ioos:station:wmo:42045:1,2010-11-04T01:30:00Z,26.2168,-96.4998,1013.79,11111222 
TABS,ioos:station:wmo:42045:1,2010-11-04T02:00:00Z,26.2168,-96.4998,1013.5,11111222 
TABS,ioos:station:wmo:42045:1,2010-11-04T02:30:00Z,26.2168,-96.4998,1014.03,11111222 
TABS,ioos:station:wmo:42045:1,2010-11-04T03:00:00Z,26.2168,-96.4998,1014.14,11111222 
TABS,ioos:station:wmo:42045:1,2010-11-04T03:30:00Z,26.2168,-96.4998,1014.4,11111222 
TABS,ioos:station:wmo:42045:1,2010-11-04T04:00:00Z,26.2168,-96.4998,1014.23,11111222 
TABS,ioos:station:wmo:42045:1,2010-11-04T04:30:00Z,26.2168,-96.4998,1014.17,11111222 
TABS,ioos:station:wmo:42045:1,2010-11-04T05:00:00Z,26.2168,-96.4998,1014.75,11111222 
TABS,ioos:station:wmo:42045:1,2010-11-04T05:30:00Z,26.2168,-96.4998,1014.63,11111222 
TABS,ioos:station:wmo:42045:1,2010-11-04T06:00:00Z,26.2168,-96.4998,1014.45,11111222 
TABS,ioos:station:wmo:42045:1,2010-11-04T06:30:00Z,26.2168,-96.4998,1013.99,11111222 
TABS,ioos:station:wmo:42045:1,2010-11-04T07:00:00Z,26.2168,-96.4998,1014.25,11111222 
TABS,ioos:station:wmo:42045:1,2010-11-04T07:30:00Z,26.2168,-96.4998,1014.09,11111222 
TABS,ioos:station:wmo:42045:1,2010-11-04T08:00:00Z,26.2168,-96.4998,1013.67,11111222 
TABS,ioos:station:wmo:42045:1,2010-11-04T08:30:00Z,26.2168,-96.4998,1013.5,11111222 
TABS,ioos:station:wmo:42045:1,2010-11-04T09:00:00Z,26.2168,-96.4998,1013.6,11111222 
TABS,ioos:station:wmo:42045:1,2010-11-04T09:30:00Z,26.2168,-96.4998,1014.03,11111222 
TABS,ioos:station:wmo:42045:1,2010-11-04T10:00:00Z,26.2168,-96.4998,1013.57,11111222 
TABS,ioos:station:wmo:42045:1,2010-11-04T10:30:00Z,26.2168,-96.4998,1014.42,11111222 
TABS,ioos:station:wmo:42045:1,2010-11-04T11:00:00Z,26.2168,-96.4998,1015.0,11111222 
TABS,ioos:station:wmo:42045:1,2010-11-04T11:30:00Z,26.2168,-96.4998,1015.29,11111222 
TABS,ioos:station:wmo:42045:1,2010-11-04T12:00:00Z,26.2168,-96.4998,1015.73,11111222 
TABS,ioos:station:wmo:42045:1,2010-11-04T12:30:00Z,26.2168,-96.4998,1016.18,11111222 
TABS,ioos:station:wmo:42045:1,2010-11-04T13:00:00Z,26.2168,-96.4998,1016.56,11111222 
TABS,ioos:station:wmo:42045:1,2010-11-04T13:30:00Z,26.2168,-96.4998,1016.71,11111222 
TABS,ioos:station:wmo:42045:1,2010-11-04T14:00:00Z,26.2168,-96.4998,1018.1,11111222 
TABS,ioos:station:wmo:42045:1,2010-11-04T14:30:00Z,26.2168,-96.4998,1018.8,11111222 
TABS,ioos:station:wmo:42045:1,2010-11-04T15:00:00Z,26.2168,-96.4998,1019.15,11111222 
TABS,ioos:station:wmo:42045:1,2010-11-04T15:30:00Z,26.2168,-96.4998,1019.39,11111222 
TABS,ioos:station:wmo:42045:1,2010-11-04T16:00:00Z,26.2168,-96.4998,1019.61,11111222 
TABS,ioos:station:wmo:42045:1,2010-11-04T16:30:00Z,26.2168,-96.4998,1019.95,11111222 
TABS,ioos:station:wmo:42045:1,2010-11-04T17:00:00Z,26.2168,-96.4998,1019.76,11111222 
TABS,ioos:station:wmo:42045:1,2010-11-04T17:30:00Z,26.2168,-96.4998,1019.5,11111222 
TABS,ioos:station:wmo:42045:1,2010-11-04T18:00:00Z,26.2168,-96.4998,1019.15,11111222 
TABS,ioos:station:wmo:42045:1,2010-11-04T18:30:00Z,26.2168,-96.4998,1019.12,11111222 
TABS,ioos:station:wmo:42045:1,2010-11-04T19:00:00Z,26.2168,-96.4998,1018.73,11111222 
TABS,ioos:station:wmo:42045:1,2010-11-04T19:30:00Z,26.2168,-96.4998,1018.29,11111222 
TABS,ioos:station:wmo:42045:1,2010-11-04T20:00:00Z,26.2168,-96.4998,1018.38,11111222 
TABS,ioos:station:wmo:42045:1,2010-11-04T20:30:00Z,26.2168,-96.4998,1017.98,11111222 
TABS,ioos:station:wmo:42045:1,2010-11-04T21:00:00Z,26.2168,-96.4998,1017.78,11111222 
TABS,ioos:station:wmo:42045:1,2010-11-04T21:30:00Z,26.2168,-96.4998,1018.03,11111222 
TABS,ioos:station:wmo:42045:1,2010-11-04T22:00:00Z,26.2168,-96.4998,1018.01,11111222 
TABS,ioos:station:wmo:42045:1,2010-11-04T22:30:00Z,26.2168,-96.4998,1017.69,11111222 
TABS,ioos:station:wmo:42045:1,2010-11-04T23:00:00Z,26.2168,-96.4998,1018.06,11111222 
TABS,ioos:station:wmo:42045:1,2010-11-04T23:30:00Z,26.2168,-96.4998,1017.78,11111222 
TABS,ioos:station:wmo:42045:1,2010-11-05T00:00:00Z,26.2168,-96.4998,1018.35,11111222 
TABS,ioos:station:wmo:42045:1,2010-11-05T00:30:00Z,26.2168,-96.4998,1018.81,11111222 
TABS,ioos:station:wmo:42045:1,2010-11-05T01:00:00Z,26.2168,-96.4998,1018.91,11111222 
TABS,ioos:station:wmo:42045:1,2010-11-05T01:30:00Z,26.2168,-96.4998,1019.17,11111222 
TABS,ioos:station:wmo:42045:1,2010-11-05T02:00:00Z,26.2168,-96.4998,1019.84,11111222 
TABS,ioos:station:wmo:42045:1,2010-11-05T02:30:00Z,26.2168,-96.4998,1020.29,11111222 
TABS,ioos:station:wmo:42045:1,2010-11-05T03:00:00Z,26.2168,-96.4998,1020.41,11111222 
TABS,ioos:station:wmo:42045:1,2010-11-05T03:30:00Z,26.2168,-96.4998,1021.31,11111222 
TABS,ioos:station:wmo:42045:1,2010-11-05T04:00:00Z,26.2168,-96.4998,1021.12,11111222 
TABS,ioos:station:wmo:42045:1,2010-11-05T04:30:00Z,26.2168,-96.4998,1021.14,11111222 
TABS,ioos:station:wmo:42045:1,2010-11-05T05:00:00Z,26.2168,-96.4998,1021.52,11111222 
TABS,ioos:station:wmo:42045:1,2010-11-05T05:30:00Z,26.2168,-96.4998,1021.42,11111222 
TABS,ioos:station:wmo:42045:1,2010-11-05T06:00:00Z,26.2168,-96.4998,1021.57,11111222 
TABS,ioos:station:wmo:42045:1,2010-11-05T06:30:00Z,26.2168,-96.4998,1021.45,11111222 
TABS,ioos:station:wmo:42045:1,2010-11-05T07:00:00Z,26.2168,-96.4998,1021.09,11111222 
TABS,ioos:station:wmo:42045:1,2010-11-05T07:30:00Z,26.2168,-96.4998,1021.47,11111222 
TABS,ioos:station:wmo:42045:1,2010-11-05T08:00:00Z,26.2168,-96.4998,1021.4,11111222 
TABS,ioos:station:wmo:42045:1,2010-11-05T08:30:00Z,26.2168,-96.4998,1021.18,11111222 
TABS,ioos:station:wmo:42045:1,2010-11-05T09:00:00Z,26.2168,-96.4998,1021.19,11111222 
TABS,ioos:station:wmo:42045:1,2010-11-05T09:30:00Z,26.2168,-96.4998,1021.13,11111222 
TABS,ioos:station:wmo:42045:1,2010-11-05T10:00:00Z,26.2168,-96.4998,1021.07,11111222 
TABS,ioos:station:wmo:42045:1,2010-11-05T10:30:00Z,26.2168,-96.4998,1021.26,11111222 
TABS,ioos:station:wmo:42045:1,2010-11-05T11:00:00Z,26.2168,-96.4998,1021.58,11111222 
TABS,ioos:station:wmo:42045:1,2010-11-05T11:30:00Z,26.2168,-96.4998,1021.85,11111222 
TABS,ioos:station:wmo:42045:1,2010-11-05T12:00:00Z,26.2168,-96.4998,1022.41,11111222 
TABS,ioos:station:wmo:42045:1,2010-11-05T12:30:00Z,26.2168,-96.4998,1022.44,11111222 
TABS,ioos:station:wmo:42045:1,2010-11-05T13:00:00Z,26.2168,-96.4998,1022.81,11111222 
TABS,ioos:station:wmo:42045:1,2010-11-05T13:30:00Z,26.2168,-96.4998,1023.21,11111222 
TABS,ioos:station:wmo:42045:1,2010-11-05T14:00:00Z,26.2168,-96.4998,1023.47,11111222 
TABS,ioos:station:wmo:42045:1,2010-11-05T14:30:00Z,26.2168,-96.4998,1023.69,11111222 
TABS,ioos:station:wmo:42045:1,2010-11-05T15:00:00Z,26.2168,-96.4998,1024.18,11111222 
TABS,ioos:station:wmo:42045:1,2010-11-05T15:30:00Z,26.2168,-96.4998,1024.42,11111222 
TABS,ioos:station:wmo:42045:1,2010-11-05T16:00:00Z,26.2168,-96.4998,1024.41,11111222 
TABS,ioos:station:wmo:42045:1,2010-11-05T16:30:00Z,26.2168,-96.4998,1024.49,11111222 
TABS,ioos:station:wmo:42045:1,2010-11-05T17:00:00Z,26.2168,-96.4998,1024.41,11111222 
TABS,ioos:station:wmo:42045:1,2010-11-05T17:30:00Z,26.2168,-96.4998,1024.43,11111222 
TABS,ioos:station:wmo:42045:1,2010-11-05T18:00:00Z,26.2168,-96.4998,1023.94,11111222 
TABS,ioos:station:wmo:42045:1,2010-11-05T18:30:00Z,26.2168,-96.4998,1023.79,11111222 
TABS,ioos:station:wmo:42045:1,2010-11-05T19:00:00Z,26.2168,-96.4998,1023.47,11111222 
TABS,ioos:station:wmo:42045:1,2010-11-05T19:30:00Z,26.2168,-96.4998,1023.19,11111222 
TABS,ioos:station:wmo:42045:1,2010-11-05T20:00:00Z,26.2168,-96.4998,1022.68,11111222 
TABS,ioos:station:wmo:42045:1,2010-11-05T20:30:00Z,26.2168,-96.4998,1022.55,11111222 
TABS,ioos:station:wmo:42045:1,2010-11-05T21:00:00Z,26.2168,-96.4998,1022.3,11111222 
TABS,ioos:station:wmo:42045:1,2010-11-05T21:30:00Z,26.2168,-96.4998,1022.28,11111222 
TABS,ioos:station:wmo:42045:1,2010-11-05T22:00:00Z,26.2168,-96.4998,1022.53,11111222 
TABS,ioos:station:wmo:42045:1,2010-11-05T22:30:00Z,26.2168,-96.4998,1022.45,11111222 
TABS,ioos:station:wmo:42045:1,2010-11-05T23:00:00Z,26.2168,-96.4998,1022.51,11111222 
TABS,ioos:station:wmo:42045:1,2010-11-05T23:30:00Z,26.2168,-96.4998,1022.6,11111222 
TABS,ioos:station:wmo:42045:1,2010-11-06T00:00:00Z,26.2168,-96.4998,1023.05,11111222 
TABS,ioos:station:wmo:42045:1,2010-11-06T00:30:00Z,26.2168,-96.4998,1023.37,11111222 
TABS,ioos:station:wmo:42045:1,2010-11-06T01:00:00Z,26.2168,-96.4998,1023.8,11111222 
TABS,ioos:station:wmo:42045:1,2010-11-06T01:30:00Z,26.2168,-96.4998,1023.97,11111222 
TABS,ioos:station:wmo:42045:1,2010-11-06T02:00:00Z,26.2168,-96.4998,1024.29,11111222 
TABS,ioos:station:wmo:42045:1,2010-11-06T02:30:00Z,26.2168,-96.4998,1024.75,11111222 
TABS,ioos:station:wmo:42045:1,2010-11-06T03:00:00Z,26.2168,-96.4998,1024.67,11111222 
TABS,ioos:station:wmo:42045:1,2010-11-06T03:30:00Z,26.2168,-96.4998,1024.9,11111222 
TABS,ioos:station:wmo:42045:1,2010-11-06T04:00:00Z,26.2168,-96.4998,1025.0,11111222 
TABS,ioos:station:wmo:42045:1,2010-11-06T04:30:00Z,26.2168,-96.4998,1025.03,11111222 
TABS,ioos:station:wmo:42045:1,2010-11-06T05:00:00Z,26.2168,-96.4998,1024.87,11111222 
TABS,ioos:station:wmo:42045:1,2010-11-06T05:30:00Z,26.2168,-96.4998,1024.81,11111222 
TABS,ioos:station:wmo:42045:1,2010-11-06T06:00:00Z,26.2168,-96.4998,1024.69,11111222 
TABS,ioos:station:wmo:42045:1,2010-11-06T06:30:00Z,26.2168,-96.4998,1024.55,11111222 
TABS,ioos:station:wmo:42045:1,2010-11-06T07:00:00Z,26.2168,-96.4998,1024.6,11111222 
TABS,ioos:station:wmo:42045:1,2010-11-06T07:30:00Z,26.2168,-96.4998,1024.37,11111222 
TABS,ioos:station:wmo:42045:1,2010-11-06T08:00:00Z,26.2168,-96.4998,1024.43,11111222 
TABS,ioos:station:wmo:42045:1,2010-11-06T08:30:00Z,26.2168,-96.4998,1024.16,11111222 
TABS,ioos:station:wmo:42045:1,2010-11-06T09:00:00Z,26.2168,-96.4998,1024.17,11111222 
TABS,ioos:station:wmo:42045:1,2010-11-06T09:30:00Z,26.2168,-96.4998,1024.3,11111222 
TABS,ioos:station:wmo:42045:1,2010-11-06T10:00:00Z,26.2168,-96.4998,1024.31,11111222 
TABS,ioos:station:wmo:42045:1,2010-11-06T10:30:00Z,26.2168,-96.4998,1024.41,11111222 
TABS,ioos:station:wmo:42045:1,2010-11-06T11:00:00Z,26.2168,-96.4998,1024.64,11111222 
TABS,ioos:station:wmo:42045:1,2010-11-06T11:30:00Z,26.2168,-96.4998,1024.79,11111222 
TABS,ioos:station:wmo:42045:1,2010-11-06T12:00:00Z,26.2168,-96.4998,1025.07,11111222 
TABS,ioos:station:wmo:42045:1,2010-11-06T12:30:00Z,26.2168,-96.4998,1025.25,11111222 
TABS,ioos:station:wmo:42045:1,2010-11-06T13:00:00Z,26.2168,-96.4998,1025.72,11111222 
TABS,ioos:station:wmo:42045:1,2010-11-06T13:30:00Z,26.2168,-96.4998,1025.98,11111222 
TABS,ioos:station:wmo:42045:1,2010-11-06T14:00:00Z,26.2168,-96.4998,1026.31,11111222 
TABS,ioos:station:wmo:42045:1,2010-11-06T14:30:00Z,26.2168,-96.4998,1026.71,11111222 
TABS,ioos:station:wmo:42045:1,2010-11-06T15:00:00Z,26.2168,-96.4998,1026.98,11111222 
TABS,ioos:station:wmo:42045:1,2010-11-06T15:30:00Z,26.2168,-96.4998,1027.36,11111222 
TABS,ioos:station:wmo:42045:1,2010-11-06T16:00:00Z,26.2168,-96.4998,1027.51,11111222 
TABS,ioos:station:wmo:42045:1,2010-11-06T16:30:00Z,26.2168,-96.4998,1027.57,11111222 
TABS,ioos:station:wmo:42045:1,2010-11-06T17:00:00Z,26.2168,-96.4998,1027.22,11111222 
TABS,ioos:station:wmo:42045:1,2010-11-06T17:30:00Z,26.2168,-96.4998,1027.02,11111222 
TABS,ioos:station:wmo:42045:1,2010-11-06T18:00:00Z,26.2168,-96.4998,1026.74,11111222 
TABS,ioos:station:wmo:42045:1,2010-11-06T18:30:00Z,26.2168,-96.4998,1026.51,11111222 